Startseite
Über Mich
AHP4
Galerie
Sehschlangen
Tourenbuch
Bookmarks
Elektronik
Bewertung
Geschichten
[Tagesmessung] [Jahreswerte] [Information]

Messwerte vom 28.05.2022

Die letzten Messwerte von 23:58:46 Uhr:
KategorieMesswert
Temperatur [°C]7
Luftdruck [mBar]999
Sonneneinstrahlung0
Wind [km/h]0 aus Süd
Niederschlag [l/m²]0
rel.Luftfeucht.85%
CO2 [ppm]419

Diagramme
Messwerte vom 28.05.2022
Tagesaggregation
KategorieMinimumMaximumSchnittSumme
Temperatur [°C]62011.5771
Luftdruck [mBar]9981001998.9125
Sonneneinstrahlung248139.6167
Wind [km/h]23
rF [%]39.996.677.43
Niederschlag [l/m²]0
CO2 [ppm]401454425.1
Einordnung alsVegetationstag

Messungen an benachbarten Tagen: Zur Jahresaggregation 2022
Tabelle aller Messwerte
UhrzeitTemperatur [°C]Luftdruck [mBar]SonneWind [km/h]RichtungRegen [l/m²]rF [%]CO2 [ppm]
00:01:47 10 1000 0 1 S 0 79 426
00:04:45 10 1001 0 2 O 0 78.4 431
00:07:48 10 1000 0 4 W 0 78 433
00:10:47 10 1000 0 2 N 0 78 427
00:13:47 10 1000 0 4 SW 0 78 440
00:16:46 11 1000 0 4 SO 0 77.6 427
00:19:47 11 1000 0 2 SO 0 77.3 424
00:22:48 11 999 0 2 SO 0 77.4 427
00:25:47 10 1000 0 2 O 0 78.1 430
00:28:49 10 1000 0 7 SO 0 79 421
00:31:46 10 1000 0 6 W 0 80.4 424
00:34:49 10 1000 0 10 O 0 82.5 422
00:37:48 9 1001 0 4 NW 0 86.6 421
00:40:49 8 999 0 6 NW 0 90.8 432
00:43:47 8 1000 0 7 S 0 91.6 431
00:46:49 8 999 0 9 N 0 93.2 433
00:49:45 8 1000 0 4 S 0 93.8 434
00:52:48 8 1000 0 1 NW 0 94.2 430
00:55:48 8 1001 0 2 NW 0 94.9 424
00:58:47 8 1001 0 0 SO 0 95.3 436
01:01:45 8 1000 0 3 W 0 95.4 436
01:04:47 7 1001 0 1 SO 0 95.6 431
01:07:47 7 1000 0 0 SW 0 95.8 430
01:10:46 7 1000 0 0 N 0 96.3 428
01:13:47 7 1000 0 0 SW 0 96.6 428
01:16:47 7 1000 0 0 S 0 96.6 433
01:19:46 7 999 0 0 SO 0 96.6 443
01:22:48 7 1000 0 0 SO 0 96.6 439
01:25:48 7 1000 0 0 S 0 96.6 434
01:28:48 7 1000 0 0 SO 0 96.6 433
01:31:48 7 1000 0 0 SO 0 96.6 424
01:34:45 7 1001 0 0 S 0 96.6 431
01:37:46 7 999 0 3 S 0 96.6 432
01:40:46 7 999 0 2 SO 0 96.6 431
01:43:46 7 999 0 0 SO 0 96.6 431
01:46:47 7 999 0 0 SO 0 96.6 431
01:49:46 7 999 0 2 SW 0 96.6 442
01:52:47 8 999 0 1 SO 0 96.6 434
01:55:47 8 999 0 0 SO 0 96.6 433
01:58:45 8 999 0 0 W 0 96.6 433
02:01:48 8 999 0 0 SW 0 96.6 436
02:04:45 8 999 0 1 S 0 96.6 436
02:07:45 8 999 0 0 S 0 96.6 439
02:10:45 8 999 0 0 NO 0 96.6 436
02:13:46 8 999 0 4 SW 0 96.6 436
02:16:46 8 999 0 5 S 0 96.6 433
02:19:46 8 999 0 5 O 0 96.6 439
02:22:48 8 998 0 12 NO 0 96.6 439
02:25:48 8 999 0 3 SO 0 96.6 437
02:28:46 8 999 0 1 SO 0 96.6 436
02:31:47 8 999 0 4 O 0 96.6 425
02:34:48 8 999 0 0 NW 0 96.6 439
02:37:46 8 999 0 5 S 0 96.6 442
02:40:46 8 999 0 4 SW 0 96.6 442
02:43:45 8 999 0 3 O 0 96.6 436
02:46:49 8 999 0 2 W 0 96.6 435
02:49:45 8 999 0 2 SO 0 96.6 442
02:52:47 8 999 0 0 SW 0 96.6 444
02:55:46 8 998 0 1 S 0 96.6 447
02:58:48 8 998 0 1 S 0 96.6 454
03:01:45 8 999 0 1 S 0 96.6 448
03:04:45 8 999 0 5 SW 0 96.6 446
03:07:45 8 999 0 3 SO 0 96.6 442
03:10:47 8 998 0 6 SW 0 96.6 445
03:13:48 8 999 0 3 SW 0 96.6 448
03:16:47 8 999 0 3 NW 0 96.6 448
03:19:47 8 998 0 2 SW 0 96.6 445
03:22:45 8 999 0 3 N 0 96.6 439
03:25:45 8 998 0 3 W 0 96.6 436
03:28:48 7 999 0 5 SW 0 96.6 430
03:31:46 7 999 0 2 S 0 96.6 433
03:34:46 7 998 0 4 W 0 96.6 428
03:37:46 7 999 0 6 S 0 96.6 428
03:40:45 7 998 0 3 SW 0 96.6 433
03:43:46 7 998 0 3 W 0 96.6 445
03:46:49 7 999 0 10 NO 0 96.6 446
03:49:47 7 998 0 1 NW 0 96.6 437
03:52:46 7 998 0 0 O 0 96.6 436
03:55:46 7 999 0 0 O 0 96.6 439
03:58:47 6 998 0 2 S 0 96.6 436
04:01:48 6 998 0 2 NW 0 96.6 442
04:04:46 6 999 0 4 NO 0 96.6 442
04:07:48 6 999 0 2 S 0 96.6 442
04:10:43 6 998 0 0 0 96.6 442
04:13:45 6 998 0 1 S 0 96.6 447
04:16:47 6 998 0 0 S 0 96.6 442
04:19:48 6 998 0 1 SO 0 96.6 442
04:22:49 6 998 0 0 SW 0 96.6 433
04:25:47 6 998 0 0 S 0 96.6 431
04:28:46 6 999 0 0 S 0 96.6 439
04:31:49 6 998 0 0 SW 0 96.6 436
04:34:46 6 998 3 1 SW 0 96.6 430
04:37:47 6 999 5 1 S 0 96.6 434
04:40:45 6 998 7 0 S 0 96.6 435
04:43:48 6 998 10 0 S 0 96.6 437
04:46:47 6 998 14 1 S 0 96.6 436
04:49:46 6 998 19 1 W 0 96.6 433
04:52:48 6 999 26 2 SO 0 96.6 433
04:55:50 6 998 33 0 W 0 96.6 433
04:58:47 6 998 41 1 S 0 96.6 433
05:01:47 6 998 49 2 NW 0 96.6 439
05:04:46 6 998 58 1 S 0 96.6 436
05:07:46 6 998 66 3 SW 0 96.6 444
05:10:47 7 998 75 2 S 0 96.6 445
05:13:49 7 998 84 0 SO 0 96.6 445
05:16:47 7 998 92 1 SO 0 96.6 442
05:19:48 7 998 100 4 NW 0 96.6 436
05:22:48 7 998 108 1 NO 0 96.6 436
05:25:48 7 998 114 1 W 0 96.6 439
05:28:48 7 998 120 1 NO 0 96.6 439
05:31:49 7 998 125 2 NW 0 96.6 440
05:34:46 7 998 131 2 W 0 96.6 430
05:37:48 7 999 135 2 SW 0 96.6 434
05:40:48 7 998 139 3 SO 0 96.6 434
05:43:49 7 998 140 3 SO 0 96.6 433
05:46:46 7 998 139 7 S 0 96.6 433
05:49:48 7 998 140 2 S 0 96.6 436
05:52:49 7 998 143 0 NO 0 96.6 434
05:55:46 7 998 143 1 SW 0 96.6 433
05:58:49 7 998 143 3 NW 0 96.6 434
06:01:48 7 998 139 0 W 0 96.6 427
06:04:46 7 998 144 2 S 0 96.6 427
06:07:50 7 998 132 1 SW 0 96.6 428
06:10:48 7 998 148 0 O 0 96.6 430
06:13:47 7 998 141 1 O 0 96.6 436
06:16:48 8 998 109 2 NW 0 96.6 430
06:19:47 8 998 127 0 S 0 96.6 436
06:22:46 8 998 147 0 S 0 96.6 433
06:25:47 8 998 143 5 W 0 96.6 430
06:28:48 8 999 149 1 SW 0 96.6 430
06:31:51 8 998 152 2 S 0 96.6 431
06:34:48 8 999 167 1 S 0 96.6 442
06:37:47 8 999 169 1 SO 0 96.6 439
06:40:48 8 998 169 6 SW 0 96.6 431
06:43:48 8 998 173 2 W 0 96.6 427
06:46:46 8 999 184 4 W 0 96.6 433
06:49:47 8 999 191 3 SW 0 96.6 445
06:52:48 8 999 178 0 W 0 96.6 442
06:55:48 8 999 187 3 O 0 96.6 442
06:58:46 8 999 191 3 SO 0 96.6 433
07:01:48 8 998 193 3 SO 0 96.6 430
07:04:49 9 999 198 3 SW 0 96.6 436
07:07:49 9 998 200 4 O 0 96.6 436
07:10:47 9 999 193 2 NO 0 96.6 436
07:13:46 9 999 197 1 S 0 96.6 439
07:16:48 10 998 197 2 NO 0 96.6 445
07:19:47 10 999 203 2 N 0 96.6 442
07:22:49 10 998 186 3 NW 0 96.6 439
07:25:50 10 998 169 6 SO 0 96.6 442
07:28:49 10 998 182 4 SO 0 96.6 436
07:31:46 10 999 194 7 SW 0 96.6 431
07:34:46 9 998 186 9 W 0 96.6 435
07:37:50 9 999 204 3 SW 0 96.6 436
07:40:47 9 999 206 5 W 0 96.6 427
07:43:50 10 999 194 3 SO 0 96.6 421
07:46:47 10 998 197 8 W 0 96.6 424
07:49:48 10 999 190 5 SO 0 96.6 433
07:52:47 11 999 204 1 S 0 96.5 439
07:55:47 11 999 193 3 O 0 96 439
07:58:47 11 999 205 4 W 0 92.1 442
08:01:48 11 999 202 14 S 0 91.7 445
08:04:50 11 999 209 4 S 0 91.9 436
08:07:47 11 999 211 3 NO 0 92.1 436
08:10:48 11 999 199 8 SW 0 91.9 436
08:13:50 11 999 203 4 W 0 91.6 440
08:16:47 11 999 212 3 W 0 91.8 439
08:19:49 11 999 210 5 SW 0 92.2 440
08:22:48 11 999 204 8 S 0 91.9 442
08:25:50 11 999 212 6 NW 0 91.7 436
08:28:48 11 999 204 1 SO 0 92.1 433
08:31:48 11 998 210 2 O 0 91.3 431
08:34:48 11 999 210 4 SW 0 90.7 436
08:37:50 11 999 211 5 SO 0 90.6 445
08:40:50 11 1000 212 5 NW 0 90.6 440
08:43:49 11 999 206 1 NW 0 89.9 433
08:46:46 11 999 199 4 W 0 90 432
08:49:46 11 999 194 4 S 0 90 428
08:52:46 11 999 212 5 S 0 90.1 427
08:55:47 11 999 217 6 S 0 90.1 435
08:58:47 11 999 214 3 SW 0 89.9 437
09:01:50 11 999 214 8 NO 0 90 434
09:04:49 11 998 208 5 SO 0 90.9 432
09:07:48 11 999 209 4 SW 0 90.1 435
09:10:50 12 999 210 3 SW 0 89.4 433
09:13:48 12 999 210 4 NW 0 89.4 436
09:16:49 12 999 209 8 O 0 88.8 436
09:19:47 12 999 218 5 O 0 89.1 442
09:22:48 12 999 214 16 N 0 87.9 440
09:25:50 12 999 211 11 W 0 86.4 440
09:28:48 12 999 207 4 S 0 86.4 442
09:31:50 12 999 217 6 NO 0 86 431
09:34:51 12 999 223 4 NW 0 86.1 432
09:37:47 13 999 220 5 W 0 86.5 430
09:40:47 13 999 219 4 W 0 86.4 434
09:43:48 13 999 217 5 S 0 83.3 442
09:46:47 13 999 220 10 W 0 83.2 437
09:49:48 13 999 225 6 S 0 84.7 436
09:52:47 13 999 220 6 NW 0 84.7 430
09:55:49 13 999 222 3 SW 0 84.4 434
09:58:48 13 999 223 2 SW 0 82.8 427
10:01:50 13 999 211 6 NW 0 82.1 422
10:04:52 13 999 204 3 SW 0 82.5 425
10:07:48 12 999 210 4 SW 0 83.2 428
10:10:49 12 999 215 3 NW 0 83.6 428
10:13:46 13 999 217 1 O 0 83.7 436
10:16:49 13 1000 228 7 O 0 84.2 436
10:19:48 13 999 217 8 W 0 84 439
10:22:49 13 999 209 6 SW 0 82.7 433
10:25:46 13 999 214 6 S 0 82.6 430
10:28:48 13 999 207 5 NW 0 83.1 425
10:31:48 12 999 204 2 SW 0 84.3 425
10:34:49 12 999 203 3 NW 0 85.7 430
10:37:51 12 999 203 3 SW 0 86.8 434
10:40:47 13 999 213 4 SW 0 86.8 442
10:43:52 13 1000 222 3 NW 0 85.2 440
10:46:46 13 999 217 7 W 0 83.9 436
10:49:48 14 1000 223 5 S 0 82.7 430
10:52:49 14 999 223 4 SO 0 82.3 431
10:55:46 14 999 224 3 N 0 81.7 436
10:58:49 14 999 221 2 NW 0 80 436
11:01:48 14 999 218 3 SO 0 79.2 430
11:04:49 14 1000 220 4 SW 0 79.5 433
11:07:46 15 999 217 3 O 0 79.6 433
11:10:48 15 999 207 8 N 0 78.5 436
11:13:47 15 999 212 1 SW 0 78.3 436
11:16:47 15 999 224 16 NW 0 78.8 434
11:19:48 15 999 224 8 S 0 75.7 436
11:22:47 15 999 226 3 SO 0 75 436
11:25:47 16 999 223 5 S 0 75.9 433
11:28:46 16 999 225 6 O 0 74.1 431
11:31:48 15 999 222 1 NW 0 72.7 421
11:34:47 15 999 220 4 SO 0 73.5 424
11:37:46 15 999 225 4 S 0 74.6 427
11:40:34 14 1000 211 3 NW 0 65.7 431
11:43:47 15 999 213 10 W 0 72.5 424
11:46:47 14 998 215 4 W 0 72.9 425
11:49:47 13 999 207 9 W 0 71.5 421
11:52:49 13 1000 196 3 O 0 72.9 427
11:55:48 12 1000 183 6 W 0 74.8 428
11:58:48 11 1000 182 5 W 0 80.5 430
12:01:50 11 999 213 7 NW 0 84.4 424
12:04:47 10 999 221 5 N 0 85.5 427
12:07:51 10 1000 220 4 SW 0 90 433
12:10:50 11 999 224 3 SW 0 90.9 434
12:13:50 11 1000 223 6 NW 0 92 427
12:16:48 11 1000 222 2 SO 0 92.1 424
12:19:48 12 999 227 3 NW 0 92.5 425
12:22:48 12 999 222 7 SW 0 93.2 424
12:25:49 13 1000 220 3 SW 0 93.4 425
12:28:49 14 1000 224 3 O 0 93.8 422
12:31:48 14 999 220 4 SW 0 91.9 428
12:34:47 15 999 213 4 NW 0 83.9 433
12:37:46 15 1000 208 3 W 0 87.5 437
12:40:48 15 999 209 7 NW 0 81.6 433
12:43:49 15 999 215 6 NW 0 81.1 434
12:46:47 16 999 221 8 W 0 82.5 436
12:49:49 16 999 226 5 W 0 83.1 433
12:52:49 17 999 221 10 NW 0 82.5 430
12:55:31 15 999 223 4 NW 0 74.1 430
12:58:49 17 999 221 3 O 0 76.6 430
13:01:47 17 999 227 2 O 0 75.1 430
13:04:50 17 999 228 7 S 0 75.9 424
13:07:49 17 999 227 2 NW 0 76.5 424
13:10:47 18 999 226 3 SO 0 74.2 424
13:13:47 18 999 230 9 W 0 72.7 427
13:16:48 18 999 226 4 S 0 68.1 424
13:19:49 17 999 205 8 W 0 69.7 428
13:22:48 16 999 189 5 W 0 70.9 427
13:25:46 14 999 221 9 N 0 71.5 427
13:28:48 13 999 220 3 W 0 74.4 422
13:31:48 13 999 217 5 W 0 82.5 430
13:34:47 15 999 216 3 O 0 82.6 433
13:37:49 16 999 217 6 SW 0 75.7 436
13:40:50 17 998 221 5 SO 0 68.6 436
13:43:47 18 999 228 2 N 0 61.6 427
13:46:48 18 999 233 8 S 0 55 422
13:49:49 18 999 235 11 NW 0 55.4 418
13:52:47 18 999 231 6 S 0 54.4 422
13:55:46 17 999 228 4 0 55.4 422
13:58:52 18 999 230 16 S 0 55.8 425
14:01:50 19 999 232 10 SO 0 55.7 431
14:04:47 19 999 232 8 SO 0 55.8 430
14:07:47 19 999 233 7 S 0 54.4 438
14:10:48 19 999 218 5 NW 0 54.2 427
14:13:50 18 999 227 3 W 0 53.2 428
14:16:48 18 999 239 5 W 0 58 422
14:19:45 18 999 241 3 O 0 57.1 424
14:22:50 17 999 233 8 W 0 53.6 422
14:25:47 17 999 241 6 W 0 54.3 427
14:28:48 17 998 226 9 O 0 54.1 433
14:31:48 17 998 241 4 NW 0 53.1 436
14:34:31 16 999 242 8 NW 0 46.1 431
14:37:48 18 999 235 3 N 0 53.6 422
14:40:47 19 999 237 12 W 0 53.4 424
14:43:50 19 999 235 6 SO 0 53.2 422
14:46:47 19 999 226 3 S 0 52.2 422
14:49:49 18 1000 215 9 SW 0 50.1 424
14:52:46 17 999 215 5 W 0 51.5 427
14:55:48 16 999 225 4 NW 0 52.7 428
14:58:49 15 999 213 7 NW 0 56.6 419
15:01:46 15 999 197 7 SW 0 57 415
15:04:49 15 999 216 21 W 0 58.4 416
15:07:49 14 999 226 12 W 0 61 424
15:10:49 14 999 224 16 W 0 61.7 419
15:13:49 14 1000 225 12 NW 0 60.8 416
15:16:48 14 999 246 5 SO 0 61.2 419
15:19:49 15 999 245 10 SW 0 61.7 428
15:22:48 16 999 245 11 W 0 58.8 433
15:25:47 16 999 245 5 W 0 57.9 434
15:28:48 17 999 245 10 SW 0 53.6 433
15:31:50 17 999 246 7 SO 0 54.8 425
15:34:49 17 998 245 8 SW 0 52.6 425
15:37:49 17 999 246 7 SO 0 52.5 426
15:40:49 18 999 246 10 W 0 53 429
15:43:49 18 999 246 8 W 0 52.4 427
15:46:47 19 999 247 5 W 0 51.8 419
15:49:51 19 998 247 5 SW 0 50.2 428
15:52:52 18 999 228 7 NW 0 50 427
15:55:47 17 998 247 2 SW 0 50.2 427
15:58:48 17 999 244 7 W 0 51.6 422
16:01:48 17 999 245 4 NW 0 52.4 418
16:04:48 17 998 247 5 W 0 53 418
16:07:48 18 998 247 8 O 0 53.6 419
16:10:49 19 999 247 8 SO 0 50.6 410
16:13:51 19 999 247 7 W 0 50 413
16:16:46 19 999 247 7 O 0 48.5 416
16:19:49 20 999 235 8 O 0 45.9 416
16:22:49 19 999 242 4 S 0 45.7 416
16:25:48 18 999 236 7 SW 0 47 410
16:28:48 18 999 244 8 W 0 47.7 410
16:31:46 18 999 247 11 W 0 47 410
16:34:48 18 999 247 13 NW 0 46 404
16:37:50 18 998 247 11 NW 0 46.2 406
16:40:49 19 999 242 17 NW 0 46.1 404
16:43:48 18 998 242 9 N 0 46.3 413
16:46:46 18 999 247 4 W 0 47.6 407
16:49:50 18 999 231 7 NO 0 48 404
16:52:49 19 999 247 5 N 0 48.8 407
16:55:47 19 998 229 2 SW 0 47.7 404
16:58:49 17 999 223 4 W 0 46.8 407
17:01:51 16 998 247 14 NW 0 47.6 407
17:04:49 18 999 247 8 W 0 49.9 401
17:07:48 18 998 247 8 SO 0 45.5 407
17:10:48 19 999 246 3 NW 0 45.5 407
17:13:48 19 999 247 16 SW 0 45.8 404
17:16:31 17 999 247 16 SW 0 40 407
17:19:50 19 999 247 16 NW 0 40.3 403
17:22:47 19 998 237 14 NO 0 40 404
17:25:49 17 999 220 16 W 0 39.9 404
17:28:47 16 998 202 4 N 0 44.3 405
17:31:49 15 998 227 23 O 0 48.2 405
17:34:48 15 1000 246 16 NW 0 48.7 407
17:37:52 16 999 248 14 NW 0 48.5 407
17:40:48 17 999 238 6 NW 0 46.4 404
17:43:47 16 999 222 17 O 0 44.4 407
17:46:49 15 999 224 12 SW 0 43.3 403
17:49:47 15 999 244 6 W 0 45.7 404
17:52:49 16 999 247 9 NW 0 45.7 404
17:55:46 18 999 232 2 SO 0 44.7 404
17:58:45 18 999 244 4 W 0 42.6 407
18:01:49 17 1000 226 3 W 0 41.5 403
18:04:50 16 999 230 3 SW 0 44.6 405
18:07:50 16 999 229 5 NW 0 46.9 406
18:10:46 15 999 227 7 O 0 47 404
18:13:49 16 999 247 5 NW 0 48.9 404
18:16:49 17 999 244 10 NW 0 47.6 404
18:19:47 17 999 239 5 SW 0 45.9 407
18:22:50 17 998 247 14 NW 0 45.1 407
18:25:50 18 999 231 16 W 0 41.6 405
18:28:48 17 999 240 4 NW 0 43.3 407
18:31:48 17 998 224 11 NW 0 43.8 407
18:34:50 16 999 216 12 NW 0 44 407
18:37:50 15 999 219 3 SO 0 47.2 407
18:40:47 15 999 246 4 W 0 48.9 405
18:43:48 15 999 228 5 NO 0 50.9 407
18:46:52 15 999 223 8 NW 0 50.2 404
18:49:49 15 999 247 4 SW 0 50.5 410
18:52:46 15 999 233 7 W 0 51.2 404
18:55:48 15 999 214 5 NW 0 51.8 408
18:58:47 15 999 215 1 O 0 51.9 407
19:01:48 14 999 215 4 NO 0 52.7 408
19:04:48 14 999 222 4 NW 0 53 408
19:07:49 14 999 220 6 W 0 54.6 411
19:10:48 14 999 218 5 W 0 54.7 408
19:13:49 14 1000 209 7 NW 0 54.8 408
19:16:47 14 999 196 6 S 0 54.6 407
19:19:47 14 999 204 4 NW 0 54.6 407
19:22:49 14 1000 194 9 W 0 55.5 409
19:25:48 13 999 184 3 SW 0 56.2 411
19:28:48 13 999 160 1 NW 0 56.6 410
19:31:48 13 1000 149 1 W 0 56.9 407
19:34:47 13 999 133 4 SW 0 57.5 407
19:37:47 13 999 113 5 0 58.4 404
19:40:49 13 999 123 6 SO 0 59.2 404
19:43:47 13 999 137 7 N 0 60.2 407
19:46:48 12 1000 152 10 NO 0 62.4 404
19:49:47 12 999 174 4 W 0 63.2 404
19:52:49 12 999 192 1 N 0 65.8 404
19:55:48 12 999 206 4 W 0 66.4 407
19:58:50 12 999 205 0 SW 0 66.8 404
20:01:49 12 999 204 6 NW 0 67.4 407
20:04:48 12 999 205 4 W 0 66.9 404
20:07:48 12 999 196 3 SW 0 65.7 410
20:10:47 12 999 190 1 SW 0 65.3 416
20:13:48 12 999 188 5 W 0 65.8 412
20:16:49 12 999 182 11 SW 0 65.9 410
20:19:46 12 999 177 2 0 65 419
20:22:49 11 998 173 6 W 0 64.3 413
20:25:48 11 999 169 5 SW 0 64.1 404
20:28:49 11 999 168 6 SO 0 64.4 404
20:31:46 11 999 166 1 W 0 64.6 407
20:34:47 11 999 161 6 SO 0 65.2 406
20:37:49 11 999 162 5 W 0 66.1 407
20:40:48 11 999 176 3 SO 0 66.4 407
20:43:46 11 999 165 2 S 0 66.5 404
20:46:49 11 999 155 4 NW 0 66.6 407
20:49:47 11 999 151 1 W 0 66.2 407
20:52:49 11 998 146 3 SW 0 66.7 407
20:55:48 11 999 141 0 S 0 67.3 407
20:58:49 11 999 136 0 W 0 67.7 407
21:01:48 11 999 129 0 SW 0 68 404
21:04:48 10 999 125 3 SW 0 68.5 407
21:07:49 10 999 123 1 NW 0 69 404
21:10:49 10 998 111 2 SW 0 69.5 404
21:13:48 10 999 101 1 SW 0 70 413
21:16:46 10 998 93 1 S 0 70.2 410
21:19:45 10 999 78 1 S 0 70.3 410
21:22:47 10 999 67 0 S 0 71 412
21:25:48 10 999 58 0 NO 0 71.3 415
21:28:45 10 999 46 0 O 0 71.7 415
21:31:46 10 999 36 0 SO 0 71.9 409
21:34:47 10 998 30 0 S 0 72.4 406
21:37:49 10 999 29 0 SO 0 72.7 407
21:40:48 10 999 25 1 SO 0 72.8 410
21:43:47 10 1000 20 1 S 0 72.8 413
21:46:45 10 999 15 1 S 0 72.7 407
21:49:47 10 999 10 0 SO 0 72.6 413
21:52:46 10 999 7 0 SO 0 72.8 410
21:55:47 9 999 5 0 NW 0 72.7 409
21:58:45 9 999 3 1 S 0 73 410
22:01:46 9 999 0 0 S 0 73.3 407
22:04:48 9 999 0 0 S 0 74 405
22:07:46 9 999 0 0 SW 0 74.7 413
22:10:45 8 999 0 0 S 0 75.5 415
22:13:49 8 999 0 0 SO 0 76.1 410
22:16:47 8 999 0 0 S 0 76.3 408
22:19:49 8 999 0 1 SO 0 76.7 414
22:22:46 8 999 0 0 SO 0 77.5 407
22:25:45 8 998 0 0 S 0 78.1 410
22:28:46 8 999 0 0 O 0 78.3 408
22:31:46 8 999 0 0 SO 0 78.7 419
22:34:47 8 999 0 0 SO 0 79 419
22:37:52 8 1000 0 0 SO 0 79.6 422
22:40:46 8 999 0 0 S 0 79.7 419
22:43:46 8 999 0 1 O 0 79.9 410
22:46:49 7 999 0 0 S 0 80.2 414
22:49:47 8 998 0 0 O 0 80.8 412
22:52:46 8 999 0 1 O 0 80.8 416
22:55:48 8 999 0 0 NO 0 80.8 416
22:58:47 8 999 0 0 SO 0 80.9 418
23:01:47 7 999 0 0 SO 0 81.1 419
23:04:44 7 999 0 0 O 0 81.2 421
23:07:46 7 999 0 0 S 0 81.6 415
23:10:44 7 998 0 0 O 0 81.6 415
23:13:46 7 999 0 0 S 0 81.8 415
23:16:49 7 999 0 0 SO 0 81.8 427
23:19:47 7 999 0 0 SO 0 82.1 424
23:22:44 7 999 0 0 O 0 82.4 424
23:25:48 7 999 0 0 SO 0 82.8 419
23:28:45 7 998 0 0 S 0 83.1 421
23:31:49 7 999 0 0 SO 0 83.6 422
23:34:45 7 999 0 0 SO 0 83.8 419
23:37:45 7 999 0 1 S 0 84.2 422
23:40:47 7 998 0 0 O 0 84.3 425
23:43:45 7 998 0 0 O 0 84.5 419
23:46:49 7 998 0 0 S 0 84.7 421
23:49:47 7 998 0 0 S 0 84.8 416
23:52:45 7 999 0 0 SO 0 84.8 421
23:55:46 7 998 0 0 SO 0 85 419
23:58:46 7 999 0 0 S 0 85 419

Letzte Änderung : 22-Jul-2022
Copyright Jens Köhler, Wolfsburg, Obere Dorfstraße 10d